FW2278 Weather Reports


time (UTC)temp
C
wind
direction
speed
KPH
gust
KPH
rain 1hr
cm
rain 24hr
cm
rain mn
cm
humidity
%
barometer
mb
20260505084804 15 112 0.0 0.0 0.00 0.03 0.00 78 1021.1
20260505083304 16 112 0.0 0.0 0.00 0.03 0.00 75 1020.9
20260505082305 17 112 0.0 0.0 0.00 0.03 0.00 73 1020.8
20260505081804 17 112 0.0 0.0 0.00 0.03 0.00 72 1020.7
20260505081304 17 112 0.0 0.0 0.00 0.03 0.00 71 1020.6
20260505080804 17 112 0.0 0.0 0.00 0.03 0.00 70 1020.6
20260505080303 17 112 0.0 0.0 0.00 0.03 0.00 69 1020.5
20260505075804 18 112 0.0 0.0 0.00 0.03 0.00 68 1020.4
20260505075304 18 112 0.0 0.0 0.00 0.03 0.00 67 1020.3
20260505074304 19 112 0.0 0.0 0.00 0.03 0.00 64 1020.1
20260505073804 19 112 0.0 3.2 0.00 0.03 0.00 63 1020.1
20260505073304 19 112 1.6 3.2 0.00 0.03 0.00 62 1020.0
20260505072305 20 109 0.0 0.0 0.00 0.03 0.00 61 1019.9
20260505071804 20 109 0.0 0.0 0.00 0.03 0.00 62 1019.8
20260505071304 20 109 0.0 0.0 0.00 0.03 0.00 62 1019.6
20260505070804 21 109 0.0 0.0 0.00 0.03 0.00 59 1019.5
20260505065804 21 105 1.6 4.8 0.00 0.03 0.00 57 1019.3
20260505065304 21 121 3.2 4.8 0.00 0.03 0.00 54 1019.2
20260505064804 22 188 0.0 4.8 0.00 0.03 0.00 53 1019.1
20260505064304 22 198 1.6 4.8 0.00 0.03 0.00 47 1019.0
20260505063804 22 201 0.0 0.0 0.00 0.03 0.00 45 1019.0
20260505063304 22 201 0.0 0.0 0.00 0.03 0.00 45 1018.9
20260505062804 22 201 0.0 0.0 0.00 0.03 0.00 47 1018.8
20260505062304 23 201 0.0 0.0 0.00 0.03 0.00 45 1018.8
20260505061803 23 201 0.0 0.0 0.00 0.03 0.00 44 1018.9
20260505061304 23 201 0.0 0.0 0.00 0.03 0.00 44 1018.8
20260505060804 23 201 0.0 0.0 0.00 0.03 0.00 44 1018.8
20260505060304 23 201 0.0 0.0 0.00 0.03 0.00 45 1018.8
20260505055804 23 201 0.0 0.0 0.00 0.03 0.00 46 1018.7
20260505055304 23 201 1.6 9.7 0.00 0.03 0.00 45 1018.7
20260505054804 23 228 4.8 9.7 0.00 0.03 0.00 44 1018.7
20260505054304 23 286 4.8 11.3 0.00 0.03 0.00 44 1018.7
20260505053804 23 206 4.8 8.0 0.00 0.03 0.00 44 1018.7
20260505053304 23 243 4.8 9.7 0.00 0.03 0.00 43 1018.6
20260505052804 23 217 4.8 9.7 0.00 0.03 0.00 42 1018.7
20260505052304 23 283 3.2 19.3 0.00 0.03 0.00 44 1018.7
20260505051304 23 220 0.0 0.0 0.00 0.03 0.00 44 1018.6
20260505050804 23 221 0.0 8.0 0.00 0.03 0.00 43 1018.5
20260505050304 23 234 4.8 8.0 0.00 0.03 0.00 43 1018.6
20260505040804 23 289 0.0 11.3 0.00 0.03 0.00 47 1018.2
20260505040304 23 302 1.6 8.0 0.00 0.03 0.00 46 1018.1
20260505035304 23 310 8.0 20.9 0.00 0.03 0.00 47 1018.1
20260505034304 23 211 3.2 19.3 0.00 0.03 0.00 47 1018.2
20260505033303 22 284 4.8 16.1 0.00 0.03 0.00 48 1018.3
20260505032804 22 190 0.0 4.8 0.00 0.03 0.00 49 1018.3
20260505032305 22 189 4.8 14.5 0.00 0.03 0.00 49 1018.4
20260505030803 22 250 6.4 14.5 0.00 0.03 0.00 50 1018.4
20260505030304 22 217 4.8 9.7 0.00 0.03 0.00 52 1018.5
20260505025804 22 240 4.8 16.1 0.00 0.03 0.00 51 1018.6
20260505024804 22 239 3.2 19.3 0.00 0.03 0.00 54 1018.6
20260505023803 22 246 1.6 14.5 0.00 0.03 0.00 52 1018.6
20260505023304 22 266 1.6 4.8 0.00 0.03 0.00 53 1018.6
20260505022804 21 258 3.2 12.9 0.00 0.03 0.00 53 1018.7
20260505021303 21 245 3.2 16.1 0.00 0.03 0.00 54 1019.0
20260505020805 21 251 9.7 14.5 0.00 0.03 0.00 54 1019.0
20260505020304 21 256 8.0 22.5 0.00 0.05 0.00 53 1019.0
20260505015804 21 288 3.2 11.3 0.00 0.05 0.00 56 1019.1
20260505015304 21 297 4.8 14.5 0.00 0.05 0.00 55 1019.2
20260505014803 21 267 1.6 14.5 0.00 0.08 0.00 56 1019.3
20260505014304 21 235 8.0 14.5 0.00 0.13 0.00 56 1019.4
20260505013803 21 230 4.8 14.5 0.00 0.18 0.00 57 1019.4
20260505013303 20 283 4.8 12.9 0.00 0.18 0.00 57 1019.4
20260505012804 20 214 4.8 11.3 0.00 0.20 0.00 58 1019.6
20260505011803 20 245 8.0 16.1 0.00 0.25 0.00 58 1019.6
20260505011304 20 256 4.8 12.9 0.00 0.28 0.00 60 1019.7
20260505010304 20 243 9.7 24.1 0.00 0.30 0.00 59 1019.9
20260505005803 20 236 11.3 22.5 0.00 0.33 0.00 59 1019.9
20260505005304 20 241 9.7 27.4 0.00 0.33 0.00 61 1020.1
20260505004804 20 219 8.0 19.3 0.00 0.38 0.00 61 1020.1
20260505003804 19 227 9.7 19.3 0.00 0.43 0.00 61 1020.1
20260505003304 19 246 3.2 22.5 0.00 0.43 0.00 62 1020.1
20260505002804 19 240 6.4 20.9 0.00 0.46 0.00 61 1020.1
20260505002304 19 265 11.3 24.1 0.00 0.51 0.00 61 1020.2
20260505001304 18 254 6.4 24.1 0.00 0.51 0.00 63 1020.3
20260505000804 18 230 8.0 29.0 0.00 0.51 0.00 65 1020.3
20260505000304 18 260 9.7 22.5 0.00 0.51 0.00 65 1020.3
20260504235804 18 297 4.8 19.3 0.00 0.51 0.00 68 1020.2
20260504235305 18 309 1.6 8.0 0.00 0.51 0.00 70 1020.4
20260504234804 18 304 6.4 14.5 0.00 0.53 0.00 69 1020.5
20260504234304 18 237 9.7 19.3 0.00 0.53 0.00 69 1020.3
20260504233804 17 260 8.0 19.3 0.00 0.58 0.00 71 1020.4
20260504232304 17 262 3.2 8.0 0.00 0.61 0.00 72 1020.6
20260504231804 17 288 3.2 9.7 0.00 0.61 0.00 72 1020.6
20260504231304 17 278 8.0 14.5 0.00 0.61 0.00 73 1020.5
20260504230804 17 264 4.8 11.3 0.00 0.61 0.00 75 1020.4
20260504225804 16 303 1.6 8.0 0.00 0.61 0.00 77 1020.4
20260504225304 16 310 3.2 12.9 0.00 0.61 0.00 78 1020.3
20260504224804 16 327 0.0 9.7 0.00 0.61 0.00 81 1020.3
20260504224304 15 300 1.6 9.7 0.00 0.61 0.00 84 1020.2
20260504223804 15 309 1.6 14.5 0.00 0.61 0.00 87 1020.2
20260504223304 14 311 4.8 14.5 0.00 0.61 0.00 91 1020.1
20260504220804 12 297 0.0 0.0 0.00 0.61 0.00 95 1020.3
20260504220304 12 281 0.0 0.0 0.00 0.61 0.00 95 1020.3
20260504215804 12 240 0.0 0.0 0.00 0.61 0.00 95 1020.5
20260504214804 11 240 0.0 0.0 0.00 0.61 0.00 95 1020.2
20260504212804 10 239 0.0 0.0 0.00 0.61 0.00 95 1019.9
20260504212304 10 239 0.0 0.0 0.00 0.61 0.00 95 1019.9
20260504211804 10 239 0.0 0.0 0.00 0.61 0.00 95 1019.9
20260504210804 10 239 0.0 0.0 0.00 0.61 0.00 95 1019.8
20260504205804 10 240 0.0 0.0 0.00 0.61 0.00 95 1019.6
20260504205304 9 240 0.0 0.0 0.00 0.61 0.00 95 1019.5
20260504204304 9 240 0.0 0.0 0.00 0.61 0.00 94 1019.3
20260504203804 10 240 0.0 0.0 0.00 0.61 0.00 94 1019.2
20260504203304 10 239 0.0 0.0 0.00 0.61 0.00 94 1019.2
20260504202804 10 239 0.0 0.0 0.00 0.61 0.00 94 1019.2
20260504202305 10 240 0.0 0.0 0.00 0.61 0.00 94 1019.2
20260504201304 10 239 0.0 0.0 0.00 0.61 0.00 94 1019.1
20260504200804 10 239 0.0 0.0 0.00 0.61 0.00 94 1019.0
20260504200304 10 240 0.0 0.0 0.00 0.61 0.00 94 1018.9
20260504195803 10 239 0.0 0.0 0.00 0.61 0.00 94 1018.8
20260504195304 10 239 0.0 0.0 0.00 0.61 0.00 94 1018.8
20260504194304 10 239 0.0 0.0 0.00 0.61 0.00 94 1018.7
20260504193803 10 239 0.0 0.0 0.00 0.61 0.00 94 1018.7
20260504193304 10 239 0.0 0.0 0.00 0.61 0.00 94 1018.6
20260504192304 11 240 0.0 0.0 0.00 0.61 0.00 94 1018.6
20260504191804 11 240 0.0 0.0 0.00 0.61 0.00 94 1018.6
20260504190304 11 240 0.0 0.0 0.00 0.61 0.00 94 1018.5
20260504185804 11 239 0.0 0.0 0.00 0.61 0.00 94 1018.5
20260504185304 11 240 0.0 0.0 0.00 0.61 0.00 94 1018.4
20260504184304 11 239 0.0 0.0 0.00 0.61 0.00 94 1018.1
20260504183804 11 239 0.0 0.0 0.00 0.61 0.00 94 1018.1
20260504183304 11 239 0.0 0.0 0.00 0.61 0.00 94 1018.0
20260504182804 12 239 0.0 0.0 0.00 0.61 0.00 93 1018.0
20260504182304 12 240 0.0 0.0 0.00 0.61 0.00 93 1018.0
20260504181804 12 239 0.0 0.0 0.00 0.61 0.00 93 1017.9
20260504180804 12 240 0.0 0.0 0.00 0.61 0.00 93 1017.9
20260504180304 12 239 0.0 0.0 0.00 0.61 0.00 93 1017.9
20260504175804 12 239 0.0 0.0 0.00 0.61 0.00 93 1017.9
20260504175304 12 239 0.0 0.0 0.00 0.61 0.00 93 1017.8
20260504174304 12 239 0.0 0.0 0.00 0.61 0.00 93 1017.8
20260504173803 13 239 0.0 0.0 0.00 0.61 0.00 93 1017.9
20260504173304 13 239 0.0 0.0 0.00 0.61 0.00 93 1017.9
20260504172804 13 239 0.0 0.0 0.00 0.61 0.00 93 1017.8
20260504172304 13 239 0.0 0.0 0.00 0.61 0.00 92 1017.8
20260504171804 13 239 0.0 0.0 0.00 0.61 0.00 92 1017.9
20260504170805 13 239 0.0 0.0 0.00 0.61 0.00 92 1017.9
20260504170304 13 239 0.0 0.0 0.00 0.61 0.00 91 1018.0
20260504160304 15 240 0.0 0.0 0.00 0.61 0.00 89 1018.1
20260504150804 16 263 0.0 0.0 0.00 0.61 0.00 94 1017.8
20260504150304 16 263 0.0 0.0 0.00 0.61 0.00 94 1017.9
20260504140803 16 263 0.0 0.0 0.03 0.61 0.00 95 1017.8
20260504140304 16 263 0.0 0.0 0.03 0.61 0.00 95 1017.8
20260504130303 17 318 0.0 0.0 0.00 0.61 0.61 95 1018.0
20260504120304 16 319 0.0 0.0 0.00 0.61 0.61 95 1018.0
20260504110304 16 329 0.0 0.0 0.00 0.61 0.61 94 1017.4
20260504100304 17 329 0.0 0.0 0.00 0.61 0.61 93 1016.4